Location: Mentone
(34.5413°N, 85.5351°W)
Time: 03:40:11
(UTC-06:00)

Vanguard 1 - Visible Passes

Search period start: 09 December 2016 00:00
Search period end: 19 December 2016 00:00
Orbit: 651 x 3833 km, 34.3° (Epoch: 07 December)

Date Brightness Start Highest point End Pass type
(mag) Time Alt. Az. Time Alt. Az. Time Alt. Az.
09 Dec 12.7 16:34:50 10° W 16:50:06 85° S 17:13:48 10° ESE visible
09 Dec 13.1 18:57:36 10° WNW 19:16:44 60° SSW 19:37:11 15° SE visible
09 Dec 13.8 21:24:48 10° W 21:41:40 27° SW 21:50:07 22° SSW visible
10 Dec 12.8 16:56:07 10° W 17:11:52 80° SSW 17:35:35 10° ESE visible
10 Dec 13.3 19:19:15 10° WNW 19:38:10 51° SW 19:59:43 10° SSE visible
10 Dec 14.0 21:48:50 10° W 22:02:36 20° SW 22:12:44 14° SSW visible
11 Dec 12.9 17:17:26 10° WNW 17:33:33 74° SSW 17:57:10 10° ESE visible
11 Dec 13.5 19:41:08 10° W 19:59:29 42° SW 20:20:01 10° SSE visible
11 Dec 14.2 22:15:32 10° WSW 22:23:35 13° SW 22:31:26 10° SSW visible
12 Dec 13.0 17:38:47 10° WNW 17:55:11 66° SSW 18:18:27 10° SE visible
12 Dec 13.7 20:03:23 10° W 20:20:44 34° SW 20:39:43 10° SSE visible
13 Dec 13.2 18:00:13 10° WNW 18:16:44 57° SSW 18:39:26 10° SE visible
13 Dec 14.0 20:26:14 10° W 20:41:55 26° SW 20:58:45 10° S visible
14 Dec 13.4 18:21:47 10° W 18:38:13 49° SSW 19:00:03 10° SSE visible
14 Dec 14.2 20:50:13 10° W 21:03:07 19° SW 21:16:40 10° S visible
15 Dec 13.6 18:43:36 10° W 18:59:39 40° SW 19:20:14 10° SSE visible
15 Dec 14.4 21:17:04 10° WSW 21:24:20 12° SW 21:31:48 10° SSW visible
16 Dec 13.0 16:42:09 10° W 16:55:51 63° SSW 17:17:56 10° SE visible
16 Dec 13.9 19:05:47 10° W 19:21:02 32° SW 19:39:53 10° SSE visible
17 Dec 13.2 17:03:31 10° W 17:17:22 54° SSW 17:38:56 10° SE visible
17 Dec 14.1 19:28:37 10° W 19:42:24 24° SW 19:58:46 10° S visible
18 Dec 13.5 17:25:02 10° W 17:38:52 45° SSW 17:59:32 10° SSE visible
18 Dec 14.4 19:52:42 10° WSW 20:03:49 17° SW 20:16:23 10° S visible
